Location: Noordwijk
(52.2400°N, 4.4500°E)
Time: 03:13:53
(UTC+00:00)

BlueWalker 3 - Visible Passes

Search period start: 30 November 2022 00:00
Search period end: 10 December 2022 00:00
Orbit: 500 x 519 km, 53.2° (Epoch: 29 November)

Date Brightness Start Highest point End Pass type
(mag) Time Alt. Az. Time Alt. Az. Time Alt. Az.
30 Nov 2.1 16:35:16 10° WSW 16:39:09 68° SSE 16:42:28 14° ENE visible
30 Nov 2.3 18:13:57 10° W 18:17:18 61° WNW 18:17:18 61° WNW visible
01 Dec 2.1 16:16:53 10° WSW 16:20:47 70° SSE 16:24:40 10° ENE visible
01 Dec 1.8 17:55:35 10° W 17:59:30 75° N 17:59:38 74° NNE visible
01 Dec 5.3 19:34:20 10° WNW 19:34:27 11° WNW 19:34:27 11° WNW visible
02 Dec 1.9 17:37:13 10° W 17:41:08 75° N 17:41:58 52° ENE visible
02 Dec 4.9 19:15:58 10° WNW 19:16:48 16° WNW 19:16:48 16° WNW visible
03 Dec 1.9 17:18:50 10° W 17:22:45 76° N 17:24:20 34° E visible
03 Dec 4.3 18:57:34 10° WNW 18:59:09 23° W 18:59:09 23° W visible
04 Dec 1.9 17:00:27 10° W 17:04:22 76° N 17:06:43 23° E visible
04 Dec 3.6 18:39:11 10° WNW 18:41:33 34° W 18:41:33 34° W visible
05 Dec 1.9 16:42:03 10° W 16:45:59 76° N 16:49:09 15° E visible
05 Dec 2.7 18:20:47 10° WNW 18:23:59 51° WSW 18:23:59 51° WSW visible
06 Dec 2.0 16:23:38 10° W 16:27:35 76° N 16:31:30 10° E visible
06 Dec 2.2 18:02:23 10° WNW 18:06:15 59° SSW 18:06:29 58° S visible
07 Dec 2.0 16:05:14 10° W 16:09:11 77° N 16:13:05 10° E visible
07 Dec 2.4 17:43:58 10° WNW 17:47:50 57° SSW 17:49:05 37° SE visible
07 Dec 5.2 19:23:25 10° W 19:23:56 12° WSW 19:23:56 12° WSW visible
08 Dec 2.5 17:25:34 10° WNW 17:29:24 55° SSW 17:31:48 21° SE visible
08 Dec 4.8 19:05:05 10° W 19:06:40 15° WSW 19:06:40 15° WSW visible
09 Dec 2.7 17:07:08 10° WNW 17:10:58 53° SSW 17:14:42 10° SE visible
09 Dec 4.6 18:46:46 10° W 18:48:58 15° SW 18:49:34 14° SW visible
